DeKalb, IL

4:58 AM CDT on April 23, 2018 (GMT -0500)
De Kalb Taylor Municipal

Weather History for KDKB - May, 2014

Change the Weather History Date:

Monday, May 12, 2014

  Actual Average (KARR) Record (KARR)
Temperature  
Mean Temperature 72 °F -  
Max Temperature 83 °F 68 °F 88 °F (2011)
Min Temperature 61 °F 46 °F 33 °F (2013)
Cooling Degree Days 6    
Growing Degree Days 22 (Base 50)    
Moisture  
Dew Point 65 °F    
Average Humidity 82    
Maximum Humidity 98    
Minimum Humidity 56    
Precipitation  
Precipitation 0.27 in - - ()
Sea Level Pressure  
Sea Level Pressure 29.86 in    
Wind  
Wind Speed 13 mph (South)    
Max Wind Speed 21 mph    
Max Gust Speed 34 mph    
Visibility 8 miles    
Events Rain , Thunderstorm    
Averages and records for this station are not official NWS values.
T = Trace of Precipitation, MM = Missing Value Source: NWS Daily Summary

Daily Weather History Graph

Daily Weather History Graph

Search for Another Location

Airport or City:

Astronomy

May. 12, 2014 Rise Set
Actual Time 5:37 AM CDT 8:05 PM CDT
Civil Twilight 5:06 AM CDT 8:37 PM CDT
Nautical Twilight 4:26 AM CDT 9:16 PM CDT
Astronomical Twilight 3:43 AM CDT 10:00 PM CDT
Moon 6:01 PM CDT (5/12) 4:19 AM CDT (5/12)
Length of Visible Light 15h 30m
Length of Day
14h 27m
Waxing Gibbous, 95% of the Moon is Illuminated
May 12
Waxing Gibbous
May 14
Full
May 21
Last Quarter
May 28
New
Jun 5
First Quarter

Hourly Weather History & Observations

Time (CDT) Temp. Heat Index Dew Point Humidity Pressure Visibility Wind Dir Wind Speed Gust Speed Precip Events Conditions
12:15 AM 62.6 °F - 60.3 °F 92% 29.91 in 10.0 mi SE 12.7 mph - N/A   Clear
12:35 AM 62.6 °F - 60.8 °F 94% 29.91 in 10.0 mi SE 11.5 mph 17.3 mph N/A   Clear
12:55 AM 62.1 °F - 60.4 °F 94% 29.89 in 10.0 mi SE 12.7 mph - N/A   Scattered Clouds
1:15 AM 62.2 °F - 60.6 °F 94% 29.89 in 10.0 mi SE 11.5 mph 18.4 mph N/A   Scattered Clouds
1:35 AM 61.9 °F - 60.4 °F 95% 29.89 in 10.0 mi SE 11.5 mph - N/A   Scattered Clouds
1:55 AM 61.9 °F - 60.6 °F 96% 29.88 in 10.0 mi SE 10.4 mph - N/A   Clear
2:15 AM 62.1 °F - 60.6 °F 95% 29.87 in 10.0 mi SE 13.8 mph - N/A   Clear
2:35 AM 62.2 °F - 60.8 °F 95% 29.87 in 10.0 mi SE 10.4 mph - N/A   Scattered Clouds
2:55 AM 62.4 °F - 61.0 °F 95% 29.87 in 10.0 mi SSE 13.8 mph - N/A   Scattered Clouds
3:15 AM 62.6 °F - 61.2 °F 95% 29.87 in 7.0 mi SSE 10.4 mph - N/A   Mostly Cloudy
3:35 AM 63.0 °F - 61.7 °F 96% 29.89 in 7.0 mi SSE 10.4 mph - N/A   Overcast
3:55 AM 63.5 °F - 62.2 °F 96% 29.88 in 5.0 mi SSE 10.4 mph - N/A   Overcast
4:15 AM 63.9 °F - 62.8 °F 96% 29.87 in 4.0 mi SSE 10.4 mph - N/A   Overcast
4:35 AM 64.4 °F - 63.5 °F 97% 29.86 in 3.0 mi SSE 12.7 mph - N/A   Overcast
4:55 AM 64.4 °F - 63.7 °F 98% 29.86 in 2.0 mi SSE 12.7 mph - N/A   Overcast
5:15 AM 64.4 °F - 63.7 °F 98% 29.85 in 2.0 mi SSE 11.5 mph - N/A   Overcast
5:35 AM 64.8 °F - 64.0 °F 98% 29.86 in 2.5 mi SSE 11.5 mph - N/A   Overcast
5:55 AM 65.1 °F - 64.4 °F 98% 29.85 in 1.8 mi SSE 12.7 mph - N/A   Mostly Cloudy
6:15 AM 65.5 °F - 64.8 °F 98% 29.85 in 2.0 mi SSE 12.7 mph - N/A   Mostly Cloudy
6:35 AM 65.5 °F - 64.6 °F 97% 29.86 in 2.0 mi South 10.4 mph - N/A   Overcast
6:55 AM 66.2 °F - 65.3 °F 97% 29.86 in 2.0 mi South 10.4 mph - N/A   Mostly Cloudy
7:15 AM 67.1 °F - 66.2 °F 97% 29.87 in 3.0 mi South 10.4 mph - N/A   Mostly Cloudy
7:35 AM 68.0 °F - 66.6 °F 95% 29.87 in 4.0 mi South 12.7 mph 18.4 mph N/A   Overcast
7:55 AM 68.9 °F - 67.1 °F 94% 29.87 in 5.0 mi South 15.0 mph 19.6 mph N/A   Overcast
8:15 AM 70.0 °F - 67.6 °F 92% 29.86 in 5.0 mi South 17.3 mph - N/A   Overcast
8:35 AM 70.3 °F - 67.6 °F 91% 29.87 in 7.0 mi SSW 15.0 mph 21.9 mph N/A   Overcast
8:55 AM 70.7 °F - 67.6 °F 90% 29.88 in 7.0 mi SSW 13.8 mph - N/A   Overcast
9:15 AM 71.8 °F - 68.4 °F 89% 29.88 in 7.0 mi SSW 17.3 mph - N/A   Overcast
9:35 AM 73.6 °F - 69.1 °F 86% 29.88 in 7.0 mi SSW 17.3 mph 21.9 mph N/A   Overcast
9:55 AM 75.0 °F - 69.3 °F 82% 29.88 in 7.0 mi SSW 19.6 mph 24.2 mph N/A   Overcast
10:15 AM 75.2 °F - 68.9 °F 81% 29.88 in 7.0 mi SSW 19.6 mph 25.3 mph N/A   Overcast
10:35 AM 75.4 °F - 68.7 °F 80% 29.88 in 10.0 mi SSW 18.4 mph - N/A   Overcast
10:55 AM 76.3 °F - 68.9 °F 78% 29.89 in 10.0 mi SSW 18.4 mph - N/A   Overcast
11:15 AM 76.1 °F - 68.9 °F 78% 29.90 in 10.0 mi SSW 17.3 mph 25.3 mph N/A   Overcast
11:35 AM 76.5 °F - 68.0 °F 75% 29.90 in 10.0 mi SW 20.7 mph - N/A   Overcast
11:55 AM 76.5 °F - 67.6 °F 74% 29.89 in 10.0 mi SW 20.7 mph 28.8 mph N/A   Mostly Cloudy
12:15 PM 77.5 °F - 68.4 °F 73% 29.88 in 10.0 mi SSW 16.1 mph 21.9 mph N/A   Mostly Cloudy
12:35 PM 77.9 °F - 68.7 °F 73% 29.87 in 10.0 mi SSW 16.1 mph - N/A   Scattered Clouds
12:55 PM 77.9 °F - 68.4 °F 72% 29.86 in 10.0 mi SSW 16.1 mph 21.9 mph N/A   Scattered Clouds
1:15 PM 78.8 °F - 68.2 °F 70% 29.87 in 10.0 mi SSW 15.0 mph 21.9 mph N/A   Scattered Clouds
1:35 PM 78.4 °F - 68.0 °F 70% 29.87 in 10.0 mi SSW 18.4 mph - N/A   Mostly Cloudy
1:55 PM 80.2 °F 83.0 °F 68.5 °F 67% 29.86 in 10.0 mi SSW 15.0 mph - N/A   Mostly Cloudy
2:35 PM 79.9 °F - 66.9 °F 64% 29.86 in 10.0 mi South 16.1 mph 23.0 mph N/A   Scattered Clouds
2:55 PM 80.6 °F 83.2 °F 67.8 °F 65% 29.85 in 10.0 mi South 18.4 mph 24.2 mph N/A   Mostly Cloudy
3:15 PM 81.3 °F 83.5 °F 66.4 °F 60% 29.85 in 10.0 mi SSW 18.4 mph 24.2 mph N/A   Mostly Cloudy
3:35 PM 81.5 °F 83.7 °F 66.6 °F 60% 29.83 in 10.0 mi South 16.1 mph 24.2 mph N/A Thunderstorm Scattered Clouds
3:55 PM 81.9 °F 84.2 °F 66.6 °F 60% 29.83 in 10.0 mi SSW 16.1 mph 19.6 mph N/A   Mostly Cloudy
4:15 PM 82.2 °F 84.0 °F 65.3 °F 56% 29.83 in 10.0 mi SSW 19.6 mph 26.5 mph N/A   Scattered Clouds
4:35 PM 82.0 °F 83.8 °F 65.1 °F 56% 29.82 in 10.0 mi SSW 19.6 mph 25.3 mph N/A   Scattered Clouds
4:55 PM 81.7 °F 83.5 °F 65.3 °F 57% 29.82 in 10.0 mi SSW 17.3 mph - N/A   Scattered Clouds
5:15 PM 82.4 °F 84.6 °F 66.2 °F 58% 29.82 in 10.0 mi SSW 16.1 mph 19.6 mph N/A   Mostly Cloudy
5:35 PM 82.6 °F 84.7 °F 65.8 °F 57% 29.82 in 10.0 mi SSW 15.0 mph 19.6 mph N/A   Scattered Clouds
5:55 PM 82.2 °F 84.0 °F 64.9 °F 56% 29.82 in 10.0 mi SSW 13.8 mph - N/A   Scattered Clouds
6:15 PM 80.8 °F 82.6 °F 65.1 °F 59% 29.81 in 10.0 mi SSW 12.7 mph - N/A   Mostly Cloudy
6:35 PM 80.8 °F 82.6 °F 65.1 °F 59% 29.79 in 10.0 mi SW 6.9 mph - N/A   Scattered Clouds
6:55 PM 79.9 °F - 65.7 °F 62% 29.80 in 10.0 mi SSW 8.1 mph - N/A Thunderstorm Scattered Clouds
7:15 PM 72.7 °F - 63.9 °F 74% 29.81 in 10.0 mi South 20.7 mph 34.5 mph N/A Thunderstorm Mostly Cloudy
7:35 PM 70.3 °F - 61.5 °F 74% 29.81 in 10.0 mi South 18.4 mph 21.9 mph N/A Thunderstorm Mostly Cloudy
7:55 PM 69.4 °F - 64.4 °F 84% 29.80 in 10.0 mi South 13.8 mph - N/A Thunderstorm Unknown
8:15 PM 69.1 °F - 65.8 °F 89% 29.81 in 10.0 mi South 10.4 mph - N/A Thunderstorm Scattered Clouds
8:35 PM 70.0 °F - 65.8 °F 87% 29.81 in 10.0 mi SSE 11.5 mph - N/A Thunderstorm Scattered Clouds
8:55 PM 70.5 °F - 66.2 °F 86% 29.83 in 10.0 mi SSE 10.4 mph - N/A   Clear
9:15 PM 72.1 °F - 66.9 °F 84% 29.86 in 10.0 mi South 5.8 mph - N/A   Mostly Cloudy
9:35 PM 65.8 °F - 60.4 °F 83% 29.87 in 10.0 mi WNW 9.2 mph - N/A   Overcast
9:55 PM 66.2 °F - 59.9 °F 80% 29.89 in 10.0 mi NNW 4.6 mph - N/A Thunderstorm Thunderstorm
10:15 PM 64.2 °F - 60.8 °F 89% 29.94 in 7.0 mi WNW 17.3 mph 24.2 mph N/A Rain , Thunderstorm Heavy Thunderstorms and Rain
10:35 PM 62.6 °F - 61.2 °F 95% 29.90 in 4.0 mi NW 12.7 mph 18.4 mph 0.16 in Rain , Thunderstorm Heavy Thunderstorms and Rain
10:55 PM 62.6 °F - 61.0 °F 94% 29.92 in 5.0 mi North 10.4 mph - 0.26 in Rain , Thunderstorm Heavy Thunderstorms and Rain
11:15 PM 62.6 °F - 61.2 °F 95% 29.91 in 10.0 mi North 8.1 mph - N/A Thunderstorm Unknown
11:35 PM 62.6 °F - 61.2 °F 95% 29.92 in 10.0 mi North 4.6 mph - 0.01 in Rain Light Rain
11:55 PM 62.2 °F - 61.0 °F 96% 29.91 in 10.0 mi ENE 4.6 mph - 0.01 in Rain , Thunderstorm Light Thunderstorms and Rain